Location: Unspecified
(0.0000°N, 0.0000°E)
Time: 10:21:48
(UTC+02:00)

Daily predictions for brighter satellites

Satellite Brightness Start Highest point End
(mag) Time Altitude Azimuth Time Altitude Azimuth Time Altitude Azimuth
NOSS 2-2 (E) 4.4 20:25:42 10° SW 20:30:05 56° WNW 20:34:04 10° NNE
SL-19 R/B 3.5 20:28:17 10° SSE 20:31:12 59° ENE 20:33:57 10° N
SAR-Lupe-4 3.6 20:28:21 10° S 20:31:55 87° WSW 20:35:28 10° NNW
Cosmos 909 Rocket 4.1 20:25:45 10° SSW 20:32:09 87° ESE 20:38:29 10° NNE
Cosmos 1340 Rocket 4.2 20:29:54 10° SE 20:32:38 18° E 20:35:21 10° NE
CZ-2C R/B 3.2 20:30:20 10° S 20:34:46 50° WSW 20:39:16 10° NNW
Cosmos 1709 Rocket 4.2 20:29:34 10° SSE 20:35:26 49° E 20:41:17 10° NNE
ATLAS V CENTAUR R/B 2.2 20:34:53 10° SW 20:36:40 31° SSE 20:38:32 10° E
ARIANE 5 R/B 4.4 20:14:29 10° W 20:37:43 61° NNW 20:41:32 10° ENE
Cosmos 1484 Rocket 2.9 20:33:55 10° SSE 20:37:55 65° E 20:41:53 10° N
Iridium 2 3.9 20:36:30 10° S 20:40:21 79° W 20:44:13 10° N
Cosmos 2084 4.2 20:38:15 10° S 20:41:53 28° ESE 20:45:19 10° NE
Ariane 42L R/B 3.3 20:29:17 10° W 20:42:35 89° NNW 20:45:50 10° E
Centaur D AC-29 3.3 20:40:19 10° W 20:43:44 16° SW 20:46:04 10° S
Cosmos 1892 4.4 20:45:32 12° ESE 20:46:50 14° E 20:48:48 10° ENE
Spot 2 Rocket 4.3 20:42:56 10° SE 20:47:23 31° ENE 20:51:49 10° NNE
Kakehashi 4.0 20:42:49 10° WSW 20:48:38 71° NNW 20:56:35 10° NE
Centaur D AC-28 2.6 20:46:31 10° NW 20:50:22 74° NNE 21:00:10 14° ESE
SJ-6B 2.9 20:47:48 10° SSE 20:51:56 69° ENE 20:55:58 10° N
Cosmos 1862 Rocket 3.5 20:50:40 10° N 20:55:03 76° E 20:59:29 10° S
Cosmos 1624 Rocket 3.9 20:52:43 10° S 20:57:53 64° ESE 21:03:04 10° NNE
Cosmos 1869 3.2 20:55:28 10° N 20:59:24 76° E 21:03:20 10° S
Cosmos 389 Rocket 3.9 20:57:02 10° NE 20:59:33 19° E 20:59:42 19° E
Cosmos 1869 Rocket 3.9 20:58:26 10° S 21:02:52 68° W 21:07:15 10° N
Cosmos 2278 Rocket 3.3 20:59:58 10° SSE 21:04:12 21° ESE 21:08:23 10° ENE
Cosmos 1607 3.9 20:58:27 10° NNW 21:04:38 82° ENE 21:10:54 10° SSE
CZ-4C R/B 3.1 20:59:09 10° NNW 21:06:57 65° ENE 21:14:05 13° SSE
Aureole 3 Rocket 3.0 21:03:21 10° NNE 21:07:01 39° E 21:08:26 25° SE
CZ-4B R/B 4.5 21:03:50 10° NNE 21:08:11 77° ESE 21:12:31 10° S
Cosmos 1844 4.0 21:02:53 10° S 21:08:14 42° ESE 21:13:35 10° NE
Cosmos 1844 Rocket 2.6 21:05:00 10° S 21:10:38 68° ESE 21:16:14 10° NNE
HJ-1C 3.4 21:08:34 20° SSE 21:10:40 56° E 21:13:56 10° N
Spot 1 4.1 21:07:29 10° S 21:11:35 75° WSW 21:15:46 10° NNW
ISS 0.0 21:09:58 10° W 21:11:54 15° NW 21:13:49 10° NNW
ASTRO E2 3.4 21:08:41 10° SSW 21:12:19 32° SSE 21:13:05 30° ESE
GPS 2-15 Rocket1 3.3 21:07:42 10° WNW 21:12:39 69° SSW 21:15:18 27° SE
USA 238 DEB 4.2 21:07:56 10° NNW 21:14:50 64° WSW 21:21:47 10° SSE
USA 238 4.1 21:08:01 10° NNW 21:14:56 65° WSW 21:21:54 10° SSE
Helios 1A 2.8 21:11:13 10° SSE 21:15:25 78° E 21:19:35 10° N
Cosmos 1452 Rocket 4.0 21:17:11 10° SSE 21:21:56 34° ESE 21:26:39 10° NE
Cosmos 1455 4.5 21:22:49 10° NW 21:26:05 26° W 21:29:21 10° SSW
Resurs 01 Rocket 1.6 21:22:51 13° S 21:26:49 82° W 21:31:12 10° NNW
Cosmos 1943 3.6 21:22:57 10° N 21:28:08 39° ENE 21:29:12 35° E
FREGAT/IRIS 4.3 21:25:21 10° SSW 21:28:11 33° W 21:31:02 10° NW
Fermi 3.6 21:24:22 10° WNW 21:28:27 87° NNE 21:29:18 54° ESE
CZ-4B DEB 3.6 21:29:15 38° NE 21:29:15 38° NE 21:31:38 10° N
USA 234 3.4 21:22:17 10° NE 21:28:30 48° SE 21:34:43 10° SSW
Meteor 2-3 Rocket 4.2 21:24:27 10° SSW 21:30:05 62° W 21:35:38 10° N
BLOCK DM-SL R/B 3.7 21:28:18 10° W 21:32:46 90° ESE 21:38:01 28° E
Okean 1-7 3.7 21:32:36 10° NNE 21:35:49 38° NE 21:35:49 38° NE
Ariane H10 4.3 21:25:28 10° W 21:44:38 72° SSW 21:47:47 42° ESE
SWIFT 2.8 21:43:34 10° WSW 21:47:01 51° SSW 21:47:01 51° SSW
NOSS 3-2 (C) 4.0 21:40:43 10° NNW 21:48:46 70° ENE 21:51:56 41° SE
Cosmos 1867 3.7 21:43:30 10° NNW 21:48:51 68° WSW 21:50:50 39° S
NOSS 3-2 (A) 4.0 21:44:58 10° NNW 21:53:06 88° WSW 21:57:08 34° SSE
Cosmos 2184 Rocket 4.0 21:50:01 10° S 21:56:11 75° W 22:02:19 10° N
Meteor 1-26 Rocket 4.2 21:50:28 10° N 21:56:22 84° E 21:57:46 54° SSE
FUSE 4.0 21:51:23 10° WSW 21:56:46 74° NNW 21:57:35 61° NNE
ARIANE 42L R/B 3.6 21:37:02 10° W 22:01:20 79° S 22:02:17 64° ESE
ALOS 2.8 22:06:38 53° NNW 22:06:38 53° NNW 22:10:13 10° NNW
Ariane H10+ 2.9 21:52:14 10° W 22:06:48 54° NNW 22:08:11 44° NNE
Cosmos 1733 Rocket 4.5 22:11:57 30° WSW 22:13:11 36° W 22:17:15 10° NNW
USA 215 3.3 22:17:00 63° S 22:17:53 70° SW 22:24:24 10° NW
Ariane H10 4.4 21:12:07 10° W 22:18:19 80° N 22:21:39 50° ENE
Ariane H10 4.4 22:42:12 10° W 23:25:49 11° E 23:28:10 10° E
Ariane H10 4.4 22:42:12 10° W 23:25:50 11° E 23:28:10 10° E
Cosmos 2278 Rocket 4.1 22:43:20 10° SW 22:47:58 26° WNW 22:52:37 10° NNW
Milstar 3 Cent rocket 4.3 23:07:09 10° WSW 23:15:35 41° SW 23:15:35 41° SW
